Wind_Speed
15 14 13 13 13 14 15 16 16 16 15 15 13 12 11 11 12 12 13 14 16 16 17 18 20 22 23 24 23 22 22 22 22 23 23 23 23 23 23 23 22 20 18
17 17 16 15 15 15 16 16 17 16 15 14 13 12 11 11 12 13 13 15 16 17 18 19 21 22 23 23 24 24 24 23 24 25 25 25 25 25 26 26 24 22 20
19 18 18 18 17 17 17 17 16 15 14 13 12 12 12 12 12 12 13 15 17 18 19 20 21 21 21 22 23 24 24 23 24 26 27 28 28 28 28 28 26 25 24
19 19 19 19 19 18 18 18 16 15 14 13 12 12 12 12 12 12 12 14 17 18 19 20 21 21 21 21 22 23 23 24 25 27 29 29 30 30 30 30 28 28 27
19 19 20 20 20 19 19 18 17 15 13 13 12 12 12 12 12 12 13 13 15 17 19 20 21 21 22 22 23 24 26 27 28 29 30 30 30 31 32 32 31 30 30
19 19 20 21 20 20 18 18 18 16 14 13 13 12 12 12 12 12 13 15 15 16 17 19 21 22 24 25 26 27 28 29 29 30 31 31 31 31 32 32 32 32 32
20 20 21 21 20 19 18 17 18 17 15 14 13 13 13 12 12 13 14 15 17 19 20 21 22 23 25 26 27 29 29 30 30 30 30 31 31 32 32 32 32 33 33
20 20 21 21 20 19 18 18 19 19 17 15 14 13 13 12 11 12 13 14 16 18 19 21 24 26 28 29 30 31 32 32 32 32 33 33 33 33 34 34 34 35 35
19 19 19 19 19 19 19 19 20 20 18 17 15 14 14 13 11 11 12 13 14 15 17 19 21 23 25 27 28 29 31 32 33 34 35 35 35 36 36 36 37 37 38
19 19 18 18 19 20 20 21 21 21 20 19 17 16 16 15 14 14 15 16 18 19 20 22 24 24 25 26 27 27 28 30 31 32 34 35 36 36 37 37 38 38 40
20 19 19 18 18 19 20 22 22 22 22 21 20 19 18 18 17 18 19 21 23 25 27 28 29 29 29 29 29 29 30 31 32 33 34 35 36 37 38 39 39 40 41
22 21 20 20 20 19 20 22 24 24 24 23 22 21 20 20 20 21 23 25 28 30 32 34 35 35 35 34 34 34 34 34 35 35 36 37 38 39 40 40 41 41 41
25 24 23 23 23 22 22 23 24 25 25 25 25 24 22 22 23 24 26 28 30 32 33 34 34 34 34 35 36 36 35 36 36 37 37 37 38 38 38 39 39 39 39
27 26 26 26 25 25 25 23 23 25 26 27 27 26 24 24 25 26 28 30 31 31 31 30 29 28 29 30 32 33 34 36 37 37 37 36 36 37 37 37 38 39 39
27 27 28 28 28 28 27 24 23 23 24 26 27 26 25 25 27 28 29 30 30 30 28 26 26 26 27 28 30 32 33 35 37 37 37 37 37 37 37 38 38 39 40
27 28 30 30 31 30 28 26 23 21 22 25 26 26 27 27 28 29 30 30 30 29 27 26 27 28 30 32 33 34 36 38 39 39 38 38 38 38 39 39 40 41 42
27 29 30 31 32 31 29 27 23 21 22 24 25 26 26 27 28 29 29 29 30 29 28 28 29 32 34 36 38 39 41 42 41 40 39 39 39 40 40 41 42 43 44
28 29 30 31 31 31 30 27 24 23 24 25 26 26 26 27 28 29 29 31 31 30 29 30 32 34 37 39 41 43 43 43 41 40 39 39 40 40 41 43 44 46 47
31 30 30 31 31 31 29 27 25 26 27 27 26 26 27 27 28 30 31 32 31 31 31 32 35 37 39 41 43 43 41 40 40 39 39 40 41 43 44 46 48 49 51
33 31 31 30 31 30 29 27 27 28 29 28 27 27 28 29 30 31 32 32 32 32 33 35 37 39 40 42 42 41 39 39 39 40 41 43 44 46 48 50 52 54 56
35 33 32 32 31 30 29 28 29 30 30 29 28 28 29 30 31 32 31 31 31 32 34 37 39 40 41 42 41 40 40 40 41 42 44 46 49 51 54 56 57 59 60
37 35 34 34 33 31 31 30 30 30 30 30 30 30 30 31 32 32 32 32 33 35 37 39 41 42 43 42 40 40 41 42 44 46 48 51 54 57 59 61 62 64 65
39 37 35 36 35 33 32 31 31 30 30 31 31 32 32 33 34 35 35 36 37 39 41 42 43 44 44 43 43 43 44 44 45 46 51 55 58 60 62 64 65 66 67
39 38 37 37 36 34 32 32 32 31 31 32 33 34 35 36 37 38 39 40 41 42 43 45 45 45 45 45 46 47 49 51 53 52 53 57 60 62 64 65 66 66 68
40 39 38 38 36 33 32 32 32 31 31 33 34 36 37 39 40 42 42 43 44 45 46 46 46 46 46 47 49 51 54 57 60 62 61 62 63 64 65 66 66 68 70
40 39 38 38 36 34 32 32 32 32 32 33 35 37 39 41 42 43 44 45 46 46 47 47 46 47 48 50 53 56 59 61 64 67 67 67 66 66 67 68 68 70 73
Wind_Direction
262 261 262 268 277 285 292 297 301 303 304 305 306 307 308 309 308 300 284 273 268 266 266 266 266 267 265 265 264 265 265 267 269 271 272 275 279 283 283 279 273 271 275
263 264 267 271 276 281 288 293 297 298 298 298 299 301 300 299 300 296 283 273 270 270 270 271 272 272 270 270 270 269 270 271 273 275 275 275 277 278 279 278 275 271 271
264 264 268 272 276 280 286 290 292 293 293 293 296 297 296 295 296 295 288 278 273 272 273 274 275 275 275 275 275 274 273 274 275 275 276 275 276 275 275 276 274 271 269
266 266 268 271 275 280 285 287 286 287 288 291 293 294 293 292 291 294 293 285 277 273 272 272 272 273 274 275 275 275 275 275 277 277 277 277 277 276 274 274 273 270 269
264 267 269 272 275 279 282 282 279 280 282 286 289 290 291 290 288 287 288 289 287 282 277 273 272 272 274 275 276 277 277 277 278 278 279 280 280 279 277 275 273 270 268
257 263 268 271 274 276 278 276 274 274 277 280 284 289 290 289 289 286 284 283 283 283 283 281 279 277 276 275 276 277 278 278 278 279 281 281 281 280 278 276 274 271 268
250 255 262 266 269 272 273 270 268 269 272 274 278 285 287 288 289 288 285 284 281 280 280 281 282 282 281 279 278 277 278 279 280 281 282 282 282 280 278 276 275 273 271
243 246 254 261 266 269 269 266 264 264 266 268 271 277 280 283 289 291 290 290 289 288 287 286 285 283 282 280 279 279 280 280 281 281 282 282 283 281 279 277 275 274 273
241 245 250 258 263 265 265 263 260 259 262 265 266 268 270 274 279 285 288 291 294 295 296 295 294 292 290 288 287 286 286 285 285 284 283 283 282 282 281 279 278 276 275
243 245 250 256 263 265 264 261 258 256 258 262 264 265 266 267 271 276 282 286 291 295 297 298 298 298 297 296 295 294 293 292 291 290 289 287 286 285 284 282 281 279 278
244 246 249 255 264 269 266 262 257 255 256 260 262 264 264 266 270 276 282 287 292 294 295 296 296 297 296 295 295 295 294 293 293 292 291 289 288 287 286 284 283 281 279
243 245 248 254 262 268 268 262 257 255 256 258 260 262 264 266 272 277 284 289 293 297 297 297 297 296 295 295 294 294 295 295 294 293 291 289 287 286 285 284 283 282 280
241 244 247 252 258 264 267 265 260 256 257 258 259 260 264 269 274 279 284 289 294 298 300 300 299 297 295 293 292 292 293 295 296 295 293 291 290 288 287 287 285 285 284
241 243 246 249 254 259 264 265 262 258 257 259 260 261 264 270 275 280 285 289 295 299 301 302 301 299 296 295 295 295 296 298 298 298 296 294 292 291 291 290 290 289 289
244 244 245 246 250 255 260 262 261 259 257 259 261 263 265 270 275 281 286 290 295 298 300 299 300 300 299 299 300 301 301 300 299 297 295 292 290 289 288 288 287 288 288
242 243 244 245 248 253 257 259 259 258 257 259 263 265 267 271 275 280 285 290 293 294 294 293 294 297 298 299 299 300 301 301 299 297 295 292 290 288 287 286 285 285 284
242 243 245 247 249 253 256 259 259 256 256 258 262 265 268 270 274 278 284 288 290 290 287 288 292 296 297 297 298 298 298 298 297 295 294 292 291 289 288 287 286 285 284
242 242 243 247 250 253 256 259 258 255 255 257 260 264 266 269 274 278 282 286 287 285 284 286 291 294 295 296 297 297 297 296 295 294 293 291 290 289 288 288 287 287 286
244 244 244 246 249 252 255 258 255 254 254 256 258 262 265 269 273 276 280 284 284 284 284 287 291 293 295 296 297 297 296 295 294 293 292 291 290 289 289 289 289 288 288
246 248 247 246 248 250 252 253 252 253 254 254 256 260 263 267 272 277 281 284 284 284 286 289 292 294 295 296 297 296 295 294 293 292 292 291 291 291 291 291 290 290 289
245 248 249 248 249 250 250 249 251 253 254 253 255 259 263 268 273 279 283 285 284 286 289 291 294 295 295 296 295 294 294 293 293 294 294 295 296 296 295 293 292 291 291
241 245 250 250 249 250 249 250 252 255 254 253 255 259 264 270 275 280 284 285 286 289 292 294 296 296 296 295 293 291 291 294 296 297 298 298 298 298 298 297 295 294 293
240 242 246 249 249 249 249 251 254 256 254 254 256 260 266 272 276 280 283 285 288 292 294 295 295 295 295 294 292 292 292 292 292 294 296 297 297 298 298 297 296 294 293
240 241 244 247 248 248 249 251 253 255 254 255 258 262 267 272 276 280 283 286 290 293 294 294 295 295 295 295 295 296 297 297 296 294 293 294 294 295 295 294 293 292 290
240 241 243 246 248 249 249 251 253 255 256 257 260 263 268 272 277 280 283 287 291 293 295 295 296 296 296 296 296 297 298 298 298 297 296 295 296 297 296 295 293 291 289
239 240 242 245 248 250 251 252 253 255 258 260 262 265 269 273 277 281 284 288 292 294 295 296 297 297 298 298 298 298 298 298 298 298 298 298 297 297 296 295 292 290 289
Height
5846 5846 5846 5847 5847 5847 5848 5847 5847 5847 5846 5846 5846 5846 5846 5845 5846 5846 5846 5846 5846 5846 5847 5847 5848 5848 5848 5848 5848 5849 5849 5849 5849 5849 5849 5848 5848 5848 5848 5848 5847 5846 5846
5844 5844 5844 5844 5844 5845 5845 5845 5845 5844 5844 5844 5844 5843 5843 5843 5843 5843 5843 5844 5844 5844 5845 5845 5845 5845 5845 5845 5846 5846 5846 5846 5846 5846 5845 5845 5844 5844 5844 5845 5844 5843 5843
5840 5841 5841 5841 5842 5842 5842 5842 5842 5842 5842 5842 5841 5841 5841 5841 5841 5841 5841 5841 5841 5842 5842 5843 5843 5842 5842 5842 5843 5843 5843 5843 5842 5842 5841 5841 5840 5840 5840 5840 5840 5840 5840
5837 5837 5838 5838 5839 5839 5839 5839 5839 5839 5839 5839 5839 5839 5838 5838 5838 5838 5838 5838 5838 5838 5839 5839 5839 5839 5839 5839 5839 5839 5839 5838 5838 5837 5837 5836 5836 5835 5835 5835 5836 5836 5835
5833 5834 5834 5834 5835 5836 5836 5836 5835 5836 5836 5836 5836 5836 5836 5835 5835 5835 5835 5836 5835 5835 5835 5835 5835 5835 5834 5834 5834 5834 5834 5833 5833 5832 5832 5831 5830 5830 5830 5830 5830 5830 5830
5829 5830 5830 5831 5831 5832 5832 5832 5832 5832 5833 5833 5833 5833 5833 5832 5832 5832 5832 5832 5832 5831 5831 5830 5830 5830 5830 5829 5829 5828 5828 5828 5827 5827 5827 5826 5825 5825 5824 5824 5824 5824 5824
5826 5826 5827 5827 5827 5828 5828 5829 5829 5829 5829 5830 5830 5830 5830 5829 5829 5829 5829 5829 5828 5828 5827 5827 5826 5826 5825 5824 5824 5823 5823 5822 5822 5822 5822 5821 5820 5819 5819 5818 5818 5818 5818
5821 5823 5823 5824 5824 5824 5824 5825 5825 5825 5826 5827 5827 5828 5827 5826 5826 5826 5826 5825 5825 5824 5824 5823 5822 5822 5821 5820 5819 5818 5818 5817 5817 5817 5816 5816 5815 5814 5813 5812 5812 5811 5811
5818 5819 5820 5820 5820 5820 5820 5821 5821 5821 5822 5823 5824 5824 5824 5824 5823 5823 5822 5822 5821 5820 5819 5819 5818 5817 5816 5815 5814 5813 5812 5812 5811 5811 5810 5809 5809 5808 5807 5806 5805 5805 5804
5815 5815 5816 5816 5816 5816 5816 5817 5817 5818 5818 5819 5820 5820 5821 5821 5820 5820 5819 5818 5818 5817 5816 5815 5814 5813 5812 5811 5810 5808 5807 5806 5805 5805 5804 5803 5801 5800 5800 5799 5798 5797 5796
5810 5811 5812 5812 5812 5812 5812 5813 5813 5814 5815 5815 5816 5816 5817 5817 5817 5816 5815 5814 5813 5813 5811 5811 5810 5809 5807 5806 5805 5803 5802 5801 5799 5798 5797 5795 5794 5793 5792 5791 5790 5789 5788
5805 5807 5808 5808 5808 5808 5808 5808 5809 5810 5811 5811 5812 5812 5813 5813 5813 5812 5811 5810 5809 5808 5806 5805 5804 5802 5801 5800 5799 5798 5796 5794 5793 5791 5790 5788 5786 5785 5784 5782 5781 5780 5779
5800 5801 5802 5803 5803 5803 5803 5803 5804 5805 5806 5807 5807 5808 5808 5808 5808 5807 5806 5805 5805 5803 5801 5799 5798 5796 5795 5794 5793 5791 5790 5788 5786 5784 5782 5780 5778 5776 5775 5773 5772 5771 5770
5794 5796 5796 5797 5798 5798 5798 5799 5799 5800 5801 5802 5802 5803 5803 5803 5803 5802 5801 5801 5799 5798 5796 5794 5792 5790 5789 5788 5786 5785 5783 5780 5779 5777 5775 5772 5770 5768 5767 5765 5763 5762 5761
5789 5790 5790 5791 5792 5792 5792 5793 5794 5795 5796 5796 5797 5798 5798 5798 5798 5797 5796 5795 5794 5792 5790 5788 5787 5785 5783 5782 5780 5778 5776 5773 5772 5769 5767 5765 5762 5761 5759 5757 5756 5754 5753
5783 5783 5784 5784 5785 5786 5787 5788 5789 5790 5790 5791 5791 5792 5793 5793 5792 5792 5791 5790 5788 5787 5785 5783 5781 5779 5777 5775 5773 5771 5769 5766 5764 5761 5759 5757 5754 5752 5751 5749 5748 5746 5744
5777 5777 5777 5778 5779 5780 5781 5782 5784 5784 5784 5785 5785 5786 5787 5787 5786 5786 5785 5784 5783 5781 5780 5778 5776 5774 5771 5768 5766 5763 5761 5758 5755 5753 5750 5748 5746 5744 5742 5740 5738 5736 5734
5770 5770 5771 5772 5773 5775 5776 5777 5778 5778 5778 5779 5780 5780 5781 5781 5781 5780 5779 5778 5777 5775 5774 5772 5770 5768 5765 5761 5758 5755 5752 5749 5746 5744 5742 5739 5737 5735 5732 5730 5728 5725 5723
5763 5764 5765 5766 5767 5769 5770 5771 5772 5772 5772 5773 5774 5775 5775 5775 5775 5774 5773 5772 5770 5769 5768 5766 5763 5761 5757 5754 5750 5747 5743 5740 5737 5735 5733 5730 5727 5725 5722 5719 5716 5713 5710
5756 5757 5758 5760 5761 5762 5764 5765 5765 5765 5766 5767 5768 5769 5769 5769 5769 5768 5766 5765 5763 5762 5760 5758 5756 5753 5750 5746 5742 5738 5735 5732 5729 5726 5724 5720 5717 5714 5710 5707 5703 5699 5696
5749 5750 5751 5753 5754 5756 5757 5758 5758 5759 5760 5761 5763 5763 5763 5763 5762 5761 5760 5758 5756 5754 5752 5750 5747 5744 5741 5738 5734 5730 5726 5723 5720 5717 5713 5709 5705 5700 5696 5692 5688 5684 5680
5741 5743 5744 5746 5747 5749 5751 5752 5752 5753 5754 5755 5756 5756 5756 5756 5755 5754 5753 5751 5749 5747 5744 5741 5738 5735 5731 5728 5725 5722 5718 5715 5709 5705 5701 5696 5692 5687 5681 5676 5671 5666 5662
5733 5736 5738 5739 5741 5742 5744 5745 5746 5746 5747 5749 5749 5749 5749 5749 5748 5747 5745 5744 5741 5738 5735 5732 5728 5725 5721 5717 5714 5711 5707 5705 5703 5700 5692 5685 5679 5674 5668 5662 5655 5649 5644
5724 5727 5730 5732 5734 5736 5737 5738 5739 5740 5741 5742 5742 5742 5742 5741 5740 5739 5738 5735 5732 5729 5726 5722 5718 5714 5710 5706 5702 5698 5693 5689 5686 5686 5684 5676 5669 5663 5656 5649 5641 5634 5627
5716 5719 5722 5725 5727 5729 5730 5732 5732 5733 5734 5734 5735 5735 5734 5734 5732 5731 5729 5726 5723 5719 5715 5711 5707 5703 5698 5694 5690 5685 5680 5675 5668 5665 5665 5661 5655 5647 5639 5632 5625 5617 5609
5708 5711 5715 5717 5719 5721 5723 5724 5725 5726 5726 5727 5727 5727 5726 5725 5724 5722 5720 5717 5713 5709 5705 5700 5695 5691 5686 5682 5677 5671 5666 5661 5654 5648 5644 5641 5637 5632 5623 5615 5607 5598 5589